Skip Page Navigation
NASA JPL Caltech
NASA Logo - Jet Propulsion Laboratory + View the NASA Portal
+ Near-Earth Object (NEO) Program
Search JPL
JPL Home Earth Solar System Stars & Galaxies Technology
JPL Solar System Dynamics
BODIES ORBITS EPHEMERIDES TOOLS PHYSICAL DATA DISCOVERY FAQ SITE MAP
JPL Small-Body Database Browser
Search: [ help ]  
6407 (1992 PF2)
Classification: Main-belt Asteroid          SPK-ID: 2006407
Ephemeris | Orbit Diagram | Orbital Elements | Physical Parameters | Discovery Circumstances | Close-Approach Data ]

[ show orbit diagram ]
Orbital Elements at Epoch 2457000.5 (2014-Dec-09.0) TDB
Reference: JPL 10 (heliocentric ecliptic J2000)
 Element Value Uncertainty (1-sigma)   Units 
e .1531227441780864 5.3834e-08  
a 2.266828189141934 1.0884e-08 AU
q 1.919725236240278 1.2264e-07 AU
i 5.084321744937431 7.2254e-06 deg
node 209.955360258373 5.1066e-05 deg
peri 49.94733375963607 5.5715e-05 deg
M 242.1646563405151 2.3488e-05 deg
tp 2457408.536868465997
(2016-Jan-21.03686847)
8.2212e-05 JED
period 1246.597736178751
3.41
8.9784e-06
2.458e-08
d
yr
n .2887860209850239 2.0799e-09 deg/d
Q 2.613931142043589 1.2551e-08 AU
  Orbit Determination Parameters
   # obs. used (total)      1230  
   data-arc span      23049 days (63.10 yr)  
   first obs. used      1951-09-22  
   last obs. used      2014-10-30  
   planetary ephem.      DE431  
   SB-pert. ephem.      SB431-BIG16  
   condition code      0  
   fit RMS      .48505  
   data source      ORB  
   producer      Otto Matic  
   solution date      2014-Nov-10 13:01:43  

Additional Information
 Earth MOID = .91094 AU 
 T_jup = 3.595 
[ show covariance matrix ]

Ephemeris | Orbit Diagram | Orbital Elements | Physical Parameters | Discovery Circumstances | Close-Approach Data ]

Physical Parameter Table
Parameter Symbol Value Units Sigma Reference Notes
absolute magnitude H 13.7 mag n/a MPO265992  
rotation period rot_per 3.14 h n/a Asteroid Lightcurve DataBase (Rev. 2014-Mar-01) Published Reference List:
[Behrend, R. (2009) Observatoire de Geneve web site, http://obswww.unige.ch/~behrend/page_cou.html]

6407 (1992 PF2)          Discovered 1992-Aug-02 by Holt, H. E. at Palomar (675)
Reference: DISCOVERY.DBLast Updated: 2003-08-29

[ show close-approach data ]
Alternate Designations
 1992 PF2 = 1976 YM3 = 1982 SU10 
Ephemeris | Orbit Diagram | Orbital Elements | Physical Parameters | Discovery Circumstances | Close-Approach Data ]
ABOUT SSD CREDITS/AWARDS PRIVACY/COPYRIGHT GLOSSARY LINKS
FirstGov 2014-Nov-26 07:44 UT
(server date/time)  
NASA Home Page
Site Manager:   Donald K. Yeomans
Webmaster  Alan B. Chamberlin